Regional Weather Roundup
Issued by NWS

Home | Current Version | Previous Version | Text Only | Print | Product List | Glossary Off
Versions: 1 2 3 4 5 6 7 8 9 10 11 12 13 14 15 16 17 18 19 20 21 22 23 24 25 26 27 28 29 30 31 32 33 34 35 36 37 38 39 40 41 42 43 44 45 46 47 48 49 50

000
ASUS43 KDTX 240501
RWRMI
MICHIGAN HOURLY REGIONAL WEATHER ROUNDUP
NATIONAL WEATHER SERVICE DETROIT/PONTIAC MI
100 AM EDT TUE MAY 24 2016

NOTE: "FAIR" INDICATES FEW OR NO CLOUDS BELOW 12,000 FEET WITH NO
SIGNIFICANT WEATHER AND/OR OBSTRUCTION TO VISIBILITY.

MIZ047>049-052>055-059>063-066>070-074>076-081>083-240600-
SOUTHEAST LOWER MICHIGAN

CITY           SKY/WX    TMP DP  RH WIND       PRES   REMARKS
ADRIAN         CLEAR     54  44  69 CALM      30.02S
ALMA           CLEAR     53  42  67 CALM      29.99R
ANN ARBOR      CLEAR     44  42  93 CALM      30.01S
BAD AXE        CLEAR     48  43  82 CALM      29.99R
CARO           CLEAR     45  43  93 CALM      29.98R
DETROIT CITY   CLEAR     60  46  59 SW6       30.01S
DETROIT        PTCLDY    58  48  69 CALM      30.02S
FLINT          CLEAR     60  38  43 S7        30.00R
GROSSE ILE     CLEAR     57  54  88 CALM      30.00S
HILLSDALE      CLEAR     54  39  57 CALM      30.01F
HOWELL         CLEAR     53  39  59 SE6       30.01R

CITY           SKY/WX    TMP DP  RH WIND       PRES   REMARKS
JACKSON        CLEAR     55  37  50 CALM      30.01S
LAMBERTVILLE   CLEAR     53  49  86 CALM      30.01F
LANSING        CLEAR     58  39  49 CALM      30.00R
LAPEER         FAIR      48  43  83 CALM      30.00S
MASON          CLEAR     59  36  41 CALM      30.00R
MONROE         CLEAR     52  51  95 CALM      30.01S
MT. CLEMENS    CLEAR     53  46  76 CALM      30.00S
PONTIAC        CLEAR     56  44  64 CALM      30.01R
PORT HOPE        N/A     59  42  53 SW6       29.95S
PORT HURON     CLEAR     48  46  93 CALM      30.00F
TRI CITIES     CLEAR     64  40  41 SW7       29.99R
MIDLAND        FAIR      52  44  74 CALM      29.98R
TROY           CLEAR     62  44  52 SW3       30.03R
SAGINAW HB     CLEAR     55  37  50 S6        29.98R
$$
MIZ043>046-050>051-056>058-064>065-071>073-077>080-240600-
SOUTHWEST LOWER MICHIGAN

CITY           SKY/WX    TMP DP  RH WIND       PRES   REMARKS
BATTLE CREEK   CLEAR     57  36  45 CALM      30.00S
BENTON HARBOR  PTCLDY    61  37  41 SE5       29.97R
BIG RAPIDS     CLEAR     51  44  78 CALM      29.97S
COLDWATER      CLEAR     50  44  79 CALM      30.01R
FREMONT        FAIR      54  44  68 CALM      29.96S
HOLLAND        CLEAR     58  42  55 S5        29.97S
GRAND RAPIDS   CLEAR     58  45  62 SE6       29.98S
IONIA          FAIR      56  40  56 S6        29.98S
KALAMAZOO      CLEAR     62  35  36 S5        30.00R
LUDINGTON      CLEAR     47  41  78 CALM      29.94S
MARSHALL       CLEAR     57  36  45 CALM      30.00R
MOUNT PLEASANT CLEAR     52  46  78 CALM      29.98R
MUSKEGON       CLEAR     54  43  66 SE6       29.96R
SOUTH HAVEN    CLEAR     62  36  38 S3        29.97S HAZE
$$
MIZ016>042-240600-
NORTHERN LOWER MICHIGAN

CITY           SKY/WX    TMP DP  RH WIND       PRES   REMARKS
ALPENA         CLEAR     50  45  83 CALM      29.95R
BEAVER ISLAND  CLEAR     62  37  38 S7        29.90F
BELLAIRE       CLEAR     49  46  91 CALM      29.94S
CADILLAC       CLEAR     48  39  71 CALM      29.96S
CHARLEVOIX     CLEAR     57  44  59 SE3       29.94F
FRANKFORT      PTCLDY    55  39  55 CALM      29.92S
GAYLORD        CLEAR     58  44  60 CALM      29.97S
GRAYLING       CLEAR     48  42  80 CALM      29.98R
HARBOR SPRINGS CLEAR     51  42  70 NE3       29.94S
HOUGHTON LAKE  CLEAR     49  45  86 CALM      29.98S
MANISTEE       CLEAR     52  37  58 E5        29.94S
OSCODA         CLEAR     53  44  74 SW7       29.95S
PELLSTON       CLEAR     44  38  79 CALM      29.94S
ROGERS CITY    CLEAR     46  42  84 CALM      29.96S
TRAVERSE CITY  CLEAR     60  38  43 S3        29.92F
$$
MIZ007>008-015-240600-
EASTERN UPPER MICHIGAN

CITY           SKY/WX    TMP DP  RH WIND       PRES   REMARKS
KINROSS          N/A     54  39  58 SE5       29.92F
MACKINAC ISLAN CLEAR     55  40  57 SE9       29.92F
NEWBERRY       CLEAR     53  37  54 S9        29.89F
S. S. MARIE    CLEAR     53  40  61 E3        29.92F
MUNISING         N/A     62  38  40 S8        29.85F
$$
MIZ004>006-011>014-085-240600-
CENTRAL UPPER MICHIGAN

CITY           SKY/WX    TMP DP  RH WIND       PRES   REMARKS
MANISTIQUE     PTCLDY    51  42  71 SE6       29.89S
ESCANABA       PTCLDY    61  45  55 SW8       29.87S
MENOMINEE      CLOUDY    60  46  59 SW6       29.88S
SAWYER-GWINN   CLOUDY    59  43  55 S7        29.87R
$$
MIZ001>003-009>011-084-240600-
WESTERN UPPER MICHIGAN

CITY           SKY/WX    TMP DP  RH WIND       PRES   REMARKS
IRON MOUNTAIN  CLOUDY    61  47  59 SE5       29.85R
HOUGHTON       CLOUDY    63  59  87 CALM      29.82S
COPPER HARBOR    N/A     68  58  70 VRB3      29.81R
IRONWOOD       CLOUDY    64  63  94 S8        29.80R
$$

ABBREVIATIONS USED IN REMARKS
   TC - TEMPERATURE IN CELSIUS
  WCI - WIND CHILL INDEX
   HX - HEAT INDEX
  VSB - VISIBILITY




USA.gov is the U.S. government's official web portal to all federal, state and local government web resources and services.